Location: Azul
(36.7830°S, 59.8500°W)
Time: 18:14:56
(UTC-03:00)

Hubble Space Telescope - Pass Details

Date: 05 December 2023
Orbit: 516 x 519 km, 28.5° (Epoch: 27 February)

Event Time Altitude Azimuth Distance (km) Brightness Sun altitude
Exits shadow 03:50:38 25° 5° (N) 1,086 1.9 -17.1°
Drops below altitude 10° 03:53:50 10° 57° (ENE) 1,766 3.5 -16.7°
Sets 03:56:21 0° 70° (ENE) 2,653 4.6 -16.3°
